Weather History for Creston, IA

Change the Weather History Date:

Wednesday, July 23, 2014

  Actual Average Record
Temperature  
Mean Temperature 72 °F -  
Max Temperature 80 °F 85 °F 101 °F (1983)
Min Temperature 64 °F 63 °F 51 °F (1948)
Cooling Degree Days 7    
Growing Degree Days 22 (Base 50)    
Moisture  
Dew Point 62 °F    
Average Humidity 72    
Maximum Humidity 88    
Minimum Humidity 54    
Precipitation  
Precipitation 0.00 in - - ()
Sea Level Pressure  
Sea Level Pressure 30.18 in    
Wind  
Wind Speed 10 mph (NE)    
Max Wind Speed 14 mph    
Max Gust Speed 17 mph    
Visibility 10 miles    
Events      
Averages and records for this station are not official NWS values.
T = Trace of Precipitation, MM = Missing Value Source: NWS Daily Summary

Daily Weather History Graph

Daily Weather History Graph

Search for Another Location

Airport:

Trip Planner

Search our weather history database for the weather conditions in past years. The results will help you decide how hot, cold, wet, or windy it might be!

Date:

Astronomy

Jul. 23, 2014 Rise Set
Actual Time 6:04 AM CDT 8:42 PM CDT
Civil Twilight 5:33 AM CDT 9:14 PM CDT
Nautical Twilight 4:53 AM CDT 9:53 PM CDT
Astronomical Twilight 4:08 AM CDT 10:38 PM CDT
Moon 3:24 AM CDT (7/23) 6:11 PM CDT (7/23)
Length of Visible Light 15h 40m
Length of Day
14h 37m
Waning Crescent, 9% of the Moon is Illuminated
Jul 23
Waning Crescent
Jul 26
New
Aug 3
First Quarter
Aug 10
Full
Aug 17
Last Quarter

Hourly Weather History & Observations

Time (CDT) Temp. Heat Index Dew Point Humidity Pressure Visibility Wind Dir Wind Speed Gust Speed Precip Events Conditions
12:15 AM 71.6 °F - 66.2 °F 83% 30.15 in 10.0 mi NNE 9.2 mph - N/A   Clear
12:35 AM 71.6 °F - 66.2 °F 83% 30.15 in 10.0 mi NNE 10.4 mph - N/A   Clear
12:55 AM 71.6 °F - 66.2 °F 83% 30.15 in 10.0 mi NNE 9.2 mph - N/A   Clear
1:15 AM 71.6 °F - 66.2 °F 83% 30.15 in 10.0 mi NNE 11.5 mph - N/A   Clear
1:35 AM 69.8 °F - 64.4 °F 83% 30.16 in 10.0 mi North 11.5 mph - N/A   Clear
1:55 AM 69.8 °F - 64.4 °F 83% 30.16 in 10.0 mi North 12.7 mph - N/A   Clear
2:15 AM 69.8 °F - 64.4 °F 83% 30.16 in 10.0 mi North 10.4 mph - N/A   Clear
2:35 AM 68.0 °F - 62.6 °F 83% 30.17 in 10.0 mi North 11.5 mph - N/A   Clear
2:55 AM 68.0 °F - 62.6 °F 83% 30.16 in 10.0 mi NNE 11.5 mph - N/A   Clear
3:15 AM 68.0 °F - 60.8 °F 78% 30.16 in 10.0 mi NNE 13.8 mph - N/A   Clear
3:35 AM 68.0 °F - 60.8 °F 78% 30.16 in 10.0 mi NNE 12.7 mph - N/A   Clear
3:55 AM 66.2 °F - 60.8 °F 83% 30.17 in 10.0 mi North 13.8 mph - N/A   Clear
4:15 AM 66.2 °F - 60.8 °F 83% 30.16 in 10.0 mi NNE 12.7 mph - N/A   Clear
4:35 AM 66.2 °F - 59.0 °F 78% 30.16 in 10.0 mi NNE 10.4 mph - N/A   Clear
4:55 AM 64.4 °F - 59.0 °F 83% 30.16 in 10.0 mi NNE 9.2 mph - N/A   Clear
5:15 AM 64.4 °F - 59.0 °F 83% 30.17 in 10.0 mi NNE 11.5 mph - N/A   Clear
5:35 AM 64.4 °F - 59.0 °F 83% 30.17 in 10.0 mi NNE 10.4 mph - N/A   Clear
5:55 AM 64.4 °F - 59.0 °F 83% 30.18 in 10.0 mi NNE 12.7 mph - N/A   Clear
6:15 AM 64.4 °F - 59.0 °F 83% 30.18 in 10.0 mi NNE 10.4 mph - N/A   Clear
6:35 AM 64.4 °F - 59.0 °F 83% 30.18 in 10.0 mi NNE 11.5 mph - N/A   Clear
6:55 AM 64.4 °F - 59.0 °F 83% 30.19 in 10.0 mi NNE 10.4 mph - N/A   Clear
7:15 AM 64.4 °F - 59.0 °F 83% 30.19 in 10.0 mi NNE 10.4 mph - N/A   Clear
7:35 AM 66.2 °F - 59.0 °F 78% 30.20 in 10.0 mi NNE 11.5 mph - N/A   Clear
7:55 AM 66.2 °F - 59.0 °F 78% 30.20 in 10.0 mi NNE 10.4 mph - N/A   Clear
8:15 AM 68.0 °F - 60.8 °F 78% 30.20 in 10.0 mi NNE 9.2 mph - N/A   Clear
8:35 AM 68.0 °F - 60.8 °F 78% 30.21 in 10.0 mi NNE 9.2 mph - N/A   Clear
8:55 AM 69.8 °F - 60.8 °F 73% 30.22 in 10.0 mi NNE 10.4 mph 17.3 mph N/A   Clear
9:15 AM 69.8 °F - 62.6 °F 78% 30.21 in 10.0 mi NNE 10.4 mph - N/A   Clear
9:35 AM 71.6 °F - 62.6 °F 73% 30.21 in 10.0 mi NE 8.1 mph - N/A   Clear
9:50 AM 71.6 °F - 64.4 °F 78% 30.22 in 10.0 mi NE 9.2 mph - N/A   Clear
10:15 AM 73.4 °F - 64.4 °F 73% 30.22 in 10.0 mi NNE 8.1 mph - N/A   Clear
10:35 AM 75.2 °F - 66.2 °F 73% 30.22 in 10.0 mi NNE 5.8 mph 11.5 mph N/A   Clear
10:55 AM 75.2 °F - 66.2 °F 73% 30.22 in 10.0 mi North 6.9 mph - N/A   Clear
11:10 AM 77.0 °F - 66.2 °F 69% 30.23 in 10.0 mi NNE 8.1 mph - N/A   Clear
11:35 AM 77.0 °F - 66.2 °F 69% 30.23 in 10.0 mi North 8.1 mph - N/A   Partly Cloudy
11:55 AM 78.8 °F - 64.4 °F 61% 30.24 in 10.0 mi NNE 8.1 mph - N/A   Partly Cloudy
12:15 PM 78.8 °F - 64.4 °F 61% 30.24 in 10.0 mi NNE 8.1 mph - N/A   Scattered Clouds
12:35 PM 77.0 °F - 64.4 °F 65% 30.23 in 10.0 mi NNE 8.1 mph - N/A   Scattered Clouds
12:55 PM 78.8 °F - 64.4 °F 61% 30.23 in 10.0 mi ENE 9.2 mph - N/A   Scattered Clouds
1:15 PM 78.8 °F - 62.6 °F 57% 30.21 in 10.0 mi NE 11.5 mph - N/A   Mostly Cloudy
1:35 PM 80.6 °F 81.8 °F 62.6 °F 54% 30.21 in 10.0 mi ENE 9.2 mph - N/A   Partly Cloudy
1:55 PM 80.6 °F 82.3 °F 64.4 °F 58% 30.20 in 10.0 mi ENE 8.1 mph - N/A   Clear
2:15 PM 80.6 °F 81.8 °F 62.6 °F 54% 30.20 in - NE 8.1 mph 16.1 mph N/A   Partly Cloudy
2:35 PM 80.6 °F 81.8 °F 62.6 °F 54% 30.20 in 10.0 mi NE 9.2 mph - N/A   Partly Cloudy
2:55 PM 80.6 °F 81.8 °F 62.6 °F 54% 30.20 in 10.0 mi NE 8.1 mph - N/A   Clear
3:10 PM 80.6 °F 81.8 °F 62.6 °F 54% 30.20 in 10.0 mi NE 9.2 mph - N/A   Partly Cloudy
3:35 PM 80.6 °F 81.8 °F 62.6 °F 54% 30.20 in 9.0 mi Variable 6.9 mph 12.7 mph N/A   Partly Cloudy
3:55 PM 80.6 °F 81.8 °F 62.6 °F 54% 30.18 in 10.0 mi NNE 8.1 mph 15.0 mph N/A   Clear
4:15 PM 80.6 °F 81.8 °F 62.6 °F 54% 30.18 in 10.0 mi NNE 8.1 mph 16.1 mph N/A   Clear
4:35 PM 80.6 °F 81.8 °F 62.6 °F 54% 30.17 in 10.0 mi NE 11.5 mph - N/A   Clear
4:55 PM 80.6 °F 81.8 °F 62.6 °F 54% 30.16 in 10.0 mi NNE 10.4 mph - N/A   Clear
5:10 PM 80.6 °F 81.8 °F 62.6 °F 54% 30.16 in 10.0 mi NE 10.4 mph - N/A   Clear
5:35 PM 80.6 °F 81.8 °F 62.6 °F 54% 30.16 in 10.0 mi NE 11.5 mph - N/A   Clear
5:55 PM 78.8 °F - 60.8 °F 54% 30.15 in 10.0 mi ENE 8.1 mph 15.0 mph N/A   Clear
6:15 PM 78.8 °F - 62.6 °F 57% 30.15 in 10.0 mi NE 10.4 mph 16.1 mph N/A   Clear
6:35 PM 78.8 °F - 62.6 °F 57% 30.15 in 10.0 mi NE 10.4 mph - N/A   Clear
6:55 PM 78.8 °F - 62.6 °F 57% 30.15 in 10.0 mi NE 5.8 mph 12.7 mph N/A   Clear
7:15 PM 77.0 °F - 60.8 °F 57% 30.15 in 10.0 mi NE 9.2 mph - N/A   Clear
7:35 PM 77.0 °F - 62.6 °F 61% 30.15 in 10.0 mi NE 9.2 mph - N/A   Clear
7:55 PM 75.2 °F - 62.6 °F 65% 30.15 in - NE 8.1 mph - N/A   Clear
8:35 PM 69.8 °F - 62.6 °F 78% 30.16 in 10.0 mi ENE 6.9 mph - N/A   Clear
9:15 PM 68.0 °F - 62.6 °F 83% 30.16 in 8.0 mi East 6.9 mph - N/A   Clear
9:35 PM 68.0 °F - 60.8 °F 78% 30.17 in 10.0 mi East 5.8 mph - N/A   Clear
9:55 PM 66.2 °F - 60.8 °F 83% 30.18 in 10.0 mi ESE 3.5 mph - N/A   Clear
10:10 PM 66.2 °F - 60.8 °F 83% 30.18 in 9.0 mi East 4.6 mph - N/A   Clear
10:35 PM 64.4 °F - 60.8 °F 88% 30.18 in 9.0 mi East 4.6 mph - N/A   Clear
10:55 PM 64.4 °F - 60.8 °F 88% 30.18 in 9.0 mi East 4.6 mph - N/A   Clear
11:15 PM 64.4 °F - 60.8 °F 88% 30.18 in 10.0 mi East 3.5 mph - N/A   Clear
11:35 PM 64.4 °F - 60.8 °F 88% 30.19 in 10.0 mi East 3.5 mph - N/A   Clear
11:55 PM 64.4 °F - 60.8 °F 88% 30.18 in 10.0 mi SE 3.5 mph - N/A   Clear